ヴィルト第3彗星

86P/Wild 3 (2008)

English version
Home page
Updated on January 7, 2012

---------------------------------------------------------------------

・ プロフィール

・ 軌道要素

Epoch 2008 May 14.0 TT = JDT 2454600.5
T 2008 May 20.00690 TT                                  MPC
q   2.3011549            (2000.0)            P               Q
n   0.14253771     Peri.  179.15642     -0.31282075     +0.91517844
a   3.6295229      Node    72.58366     -0.87298812     -0.17161285
e   0.3659897      Incl.   15.44778     -0.37421240     -0.36468816
P   6.91
From 63 observations 1994 Feb. 10-2008 June 3, mean residual 0".7.
     Nongravitational parameters Y1 = -0.24, Y2 = +0.0065.

・ 星図

・ 光度変化

        m1 = 13.0 + 5 logΔ + 15.0 log r

---------------------------------------------------------------------

軌道要素はM.P.E.C. 2011-Y66に掲載されたものです。
星図は StellaNavigator Ver.2.0 for Windows (アストロアーツ編著 / アスキー出版局刊) で作成したものです。
光度グラフはComet for Windowsで作成したものです。

---------------------------------------------------------------------

Copyright(C) Seiichi Yoshida (comet@aerith.net). All rights reserved.